Location: Unspecified
(42.3650°N, 71.1030°W)
Time: 10:54:31
(UTC+00:00)

Courier 1B - Pass Details

Date: 26 June 2024
Orbit: 962 x 1209 km, 28.3° (Epoch: 13 July)

Event Time Altitude Azimuth Distance (km) Brightness Sun altitude
Rises 03:14:00 0° 219° (SW) 3,684 - -20.8°
Reaches altitude 10° 03:17:36 10° 200° (SSW) 2,774 - -21.1°
Maximum altitude 03:21:45 17° 161° (SSE) 2,334 - -21.4°
Drops below altitude 10° 03:26:03 10° 123° (ESE) 2,883 - -21.7°
Sets 03:29:54 0° 105° (ESE) 3,893 - -21.9°
